Location: Grovedale
(55.0253°N, 118.8649°W)
Time: 02:46:05
(UTC+00:00)

N. Korean satellite - Visible Passes

Search period start: 07 December 2021 00:00
Search period end: 17 December 2021 00:00
Orbit: 446 x 495 km, 97.3° (Epoch: 06 December)

Date Brightness Start Highest point End Pass type
(mag) Time Alt. Az. Time Alt. Az. Time Alt. Az.
07 Dec 9.8 01:31:43 10° WSW 01:33:22 13° W 01:35:02 10° WNW visible
07 Dec 8.3 12:47:23 10° NNE 12:50:27 30° E 12:53:29 10° SSE visible
07 Dec 7.3 14:20:42 10° N 14:23:36 26° WNW 14:26:28 10° WSW visible
08 Dec 9.1 01:01:42 10° SSW 01:04:34 24° W 01:07:27 10° NW visible
08 Dec 9.4 12:19:29 10° NE 12:21:41 16° E 12:23:53 10° SE visible
08 Dec 6.5 13:51:52 10° N 13:55:11 50° WNW 13:58:28 10° SSW visible
09 Dec 7.7 00:32:30 10° S 00:35:52 46° W 00:39:13 10° NNW visible
09 Dec 6.4 13:23:14 10° NNE 13:26:39 77° ESE 13:30:02 10° S visible
09 Dec 8.2 14:57:41 10° NNW 14:59:22 13° WNW 15:01:02 10° W visible
10 Dec 10.1 01:40:10 10° W 01:41:00 11° W 01:41:49 10° WNW visible
10 Dec 8.1 12:54:49 10° NNE 13:00:22 16° SSE 13:01:10 10° SSE visible
10 Dec 7.6 14:28:20 10° N 14:31:04 23° WNW 14:31:25 22° WNW visible
11 Dec 9.4 01:09:32 10° SW 01:12:09 20° W 01:14:45 10° NW visible
11 Dec 9.3 12:26:44 10° NE 12:32:11 - SE 12:27:54 16° ENE visible
11 Dec 7.0 13:59:25 10° N 14:06:18 - SW 14:01:56 36° NW visible
12 Dec 8.1 00:40:09 10° SSW 00:43:24 37° W 00:46:38 10° NNW visible
12 Dec10.112:03:50SE12:03:50SE11:58:34ENEvisible
12 Dec 7.7 13:30:42 10° NNE 13:37:55 - SSW 13:32:37 31° NNE visible
12 Dec 8.4 15:05:34 10° NW 15:06:40 11° NW 15:06:40 11° NW visible
13 Dec 6.6 00:11:18 10° S 00:14:45 79° WSW 00:18:11 10° NNW visible
13 Dec 8.7 13:02:12 10° NNE 13:09:27 - S 13:03:24 19° NE visible
13 Dec 8.0 14:35:55 10° NNW 14:37:27 17° NW 14:37:27 17° NW visible
14 Dec 9.6 01:17:21 10° SW 01:19:39 17° W 01:21:57 10° NW visible
14 Dec 9.5 12:33:59 10° NE 12:40:54 - SSE 12:34:14 11° NE visible
14 Dec 8.0 14:06:55 10° N 14:14:59 - SW 14:08:18 21° NNW visible
15 Dec 8.5 00:47:45 10° SSW 00:50:51 31° W 00:53:57 10° NNW visible
15 Dec10.212:12:19SE12:12:19SE12:05:07NEvisible
15 Dec 8.4 13:38:07 10° N 13:46:24 - SSW 13:39:10 19° N visible
16 Dec 6.9 00:18:45 10° S 00:22:09 65° WSW 00:25:33 10° NNW visible
16 Dec 9.0 13:09:33 10° NNE 13:17:46 - S 13:10:05 14° NNE visible
16 Dec 8.5 14:43:29 10° NNW 14:44:09 13° NNW 14:44:09 13° NNW visible
